Location: Unspecified
(0.0000°N, 0.0000°E)
Time: 12:45:08
(UTC+00:00)

ADRAS-J - Pass Details

Date: 26 May 2025
Orbit: 544 x 592 km, 98.2° (Epoch: 16 June)

Event Time Altitude Azimuth Distance (km) Brightness Sun altitude
Rises 05:05:16 0° 14° (NNE) 2,810 ? -12.1°
Reaches altitude 10° 05:07:25 10° 16° (NNE) 1,914 ? -11.6°
Maximum altitude 05:11:34 77° 101° (E) 611 ? -10.6°
Drops below altitude 10° 05:15:45 10° 188° (S) 1,921 ? -9.6°
Sets 05:17:54 0° 189° (S) 2,820 ? -9.1°
